Voltar ao catálogo

COSMOS 2251 DEB

AtivoLEO
NORAD 34035·DEBRIS·🇷🇺 Russia

Lançado Jun 16, 1993 de Plesetsk Cosmodrome

Loading…

Próximas Passagens (próximas 24 horas)

TLE

AtualizadoSource: Space-Track

Época: Sep 14, 2026, 14:04 UTC

1 34035U 93036HW  26257.58676514  .00002955  00000-0  69016-3 0  9996
2 34035  74.0641 189.0284 0040001 127.8237 289.8816 14.54658797919744

Acompanhe COSMOS 2251 DEB em tempo real com AllMySat

Download on the App Store